Вернуться в каталог

SL-12 R/B(2)

АктивенMEO
NORAD 19505·ROCKET BODY·🇷🇺 Russia

Запущен Sep 16, 1988 с Baikonur Cosmodrome

Loading…

Ближайшие Пролёты (ближайшие 24 часа)

TLE

СвежийSource: Space-Track

Эпоха: Sep 13, 2026, 03:39 UTC

1 19505U 88085E   26256.15260067 -.00000047  00000-0  00000-0 0  9999
2 19505  65.1496 310.1147 0012235 210.6178 151.1181  2.13369178295923

Отслеживайте SL-12 R/B(2) в реальном времени с AllMySat

Download on the App Store